Date String (YYYY-MM-DD hh:mm:ss) UTC,Instrument flags,Ambient pressure (hPa),Sample flow (lpm),Bypass flow (lpm),Sample temperature (°C),Ambient temperature (°C),ASC tube jacket temperature (°C),LED temperature (°C),Box temperature (°C),Sample RH (%),Span deviation,Mass concentration (μg/m³),Mass concentration (μg/m³),Mass concentration (μg/m³)
DateTimeUTC,F1_M11,P_M11,Q1_M11,Q2_M11,T1_M11,T2_M11,T3_M11,T4_M11,T5_M11,U1_M11,ZSPAN_M11,X2_M11,X0_M11,X1_M11
2023-05-08 18:00:00,,0830.2,5.00,0.00,30.0,25.9,00.0,38.2,31.3,17.6,0001.4,0006.64,0016.43,0005.58
2023-05-08 18:01:00,,0830.1,5.01,0.00,29.9,25.1,00.0,38.1,31.1,18.2,0001.5,0006.70,0015.18,0005.64
2023-05-08 18:02:00,,0830.1,5.00,0.00,29.8,25.3,00.0,38.0,31.0,18.0,0001.7,0006.75,0014.90,0005.68
2023-05-08 18:03:00,,0830.1,4.99,0.00,29.7,25.7,00.0,38.0,31.0,18.0,0001.8,0006.86,0015.21,0005.76
2023-05-08 18:04:00,,0830.1,5.00,0.00,29.6,26.1,00.0,38.0,31.0,18.2,0001.9,0006.93,0015.37,0005.82
2023-05-08 18:05:00,,0830.1,5.01,0.00,29.6,26.5,00.0,38.0,31.1,18.3,0002.2,0006.97,0015.47,0005.85
2023-05-08 18:06:00,,0830.2,5.01,0.00,29.6,26.8,00.0,38.0,31.1,18.3,0002.0,0006.89,0015.58,0005.85
2023-05-08 18:07:00,,0830.1,4.98,0.00,29.6,27.1,00.0,38.0,31.2,17.8,0002.2,0006.86,0015.15,0005.86
2023-05-08 18:08:00,,0830.1,5.00,0.00,29.6,27.4,00.0,38.0,31.2,16.9,0002.7,0006.84,0014.26,0005.86
2023-05-08 18:09:00,,0830.1,5.01,0.00,29.6,27.6,00.0,38.0,31.3,17.2,0002.9,0006.87,0014.03,0005.87
2023-05-08 18:10:00,,0830.0,5.01,0.00,29.6,27.7,00.0,38.0,31.3,16.8,0002.2,0006.88,0015.11,0005.88
2023-05-08 18:11:00,,0830.0,4.98,0.00,29.6,27.9,00.0,38.0,31.3,17.0,0002.3,0006.86,0015.82,0005.86
2023-05-08 18:12:00,,0830.0,5.00,0.00,29.7,28.0,00.0,38.0,31.4,17.2,0002.8,0006.82,0015.99,0005.82
2023-05-08 18:13:00,,0830.0,5.00,0.00,29.7,28.1,00.0,38.0,31.4,17.3,0002.5,0006.72,0015.91,0005.77
2023-05-08 18:14:00,,0830.1,5.00,0.00,29.7,28.2,00.0,38.0,31.4,17.3,0002.1,0006.63,0015.46,0005.68
2023-05-08 18:15:00,,0830.0,5.01,0.00,29.7,28.3,00.0,38.0,31.4,17.4,0002.1,0006.51,0015.20,0005.58
2023-05-08 18:16:00,,0830.0,4.99,0.00,29.8,28.4,00.0,38.1,31.5,17.3,0002.3,0006.40,0015.60,0005.50
2023-05-08 18:17:00,,0830.0,5.00,0.00,29.8,28.5,00.0,38.1,31.5,17.2,0003.1,0006.36,0015.44,0005.42
2023-05-08 18:18:00,,0830.1,5.01,0.00,29.8,28.5,00.0,38.1,31.6,16.7,0002.8,0006.31,0016.12,0005.37
2023-05-08 18:19:00,,0830.0,4.99,0.00,29.8,28.6,00.0,38.1,31.6,16.1,0002.5,0006.25,0016.17,0005.30
2023-05-08 18:20:00,,0830.0,5.00,0.00,29.9,28.6,00.0,38.1,31.6,16.4,0002.4,0006.18,0015.79,0005.25
2023-05-08 18:21:00,,0830.0,5.01,0.00,29.9,28.7,00.0,38.2,31.7,16.5,0002.4,0006.13,0015.33,0005.22
2023-05-08 18:22:00,,0830.0,5.01,0.00,29.9,28.7,00.0,38.2,31.7,16.6,0002.1,0006.04,0014.54,0005.16
2023-05-08 18:23:00,,0830.0,5.01,0.00,30.0,28.7,00.0,38.2,31.7,16.7,0001.3,0005.99,0014.27,0005.11
2023-05-08 18:24:00,,0829.9,4.99,0.00,30.0,28.8,00.0,38.2,31.7,17.1,0001.1,0005.93,0014.09,0005.05
2023-05-08 18:25:00,,0830.0,5.00,0.00,30.0,28.7,00.0,38.2,31.8,16.9,0000.1,0005.89,0014.13,0005.01
2023-05-08 18:26:00,,0829.9,4.99,0.00,30.0,27.3,00.0,38.2,31.6,16.3,-001.0,0005.85,0013.78,0004.98
2023-05-08 18:27:00,,0829.8,5.01,0.00,29.9,25.5,00.0,38.1,31.3,16.5,-001.6,0005.82,0012.76,0004.95
2023-05-08 18:28:00,,0829.8,5.01,0.00,29.8,25.3,00.0,38.0,31.1,16.3,-002.1,0005.75,0012.48,0004.91
2023-05-08 18:29:00,,0829.8,5.01,0.00,29.7,25.5,00.0,38.0,31.0,15.8,-002.0,0005.69,0011.56,0004.85
2023-05-08 18:30:00,,0829.8,5.00,0.00,29.7,25.9,00.0,38.0,31.0,16.2,-002.0,0005.69,0011.31,0004.82
2023-05-08 18:31:00,,0829.8,4.98,0.00,29.6,26.3,00.0,38.0,31.1,16.1,-001.8,0005.65,0011.33,0004.78
2023-05-08 18:32:00,,0829.8,5.00,0.00,29.6,26.7,00.0,38.0,31.1,14.6,-002.4,0005.55,0010.60,0004.66
2023-05-08 18:33:00,,0829.7,5.01,0.00,29.6,27.0,00.0,38.0,31.2,14.1,-002.8,0005.42,0010.53,0004.52
2023-05-08 18:34:00,,0829.7,5.01,0.00,29.6,27.3,00.0,38.0,31.2,13.9,-002.5,0005.25,0010.54,0004.37
2023-05-08 18:35:00,,0829.8,5.01,0.00,29.6,27.5,00.0,38.0,31.3,14.4,-002.7,0005.19,0010.65,0004.27
2023-05-08 18:36:00,,0829.7,4.99,0.00,29.6,27.7,00.0,38.0,31.3,15.2,-002.1,0005.06,0010.94,0004.17
2023-05-08 18:37:00,,0829.7,4.99,0.00,29.6,27.9,00.0,38.0,31.3,15.8,-001.3,0005.00,0010.80,0004.11
2023-05-08 18:38:00,,0829.7,5.00,0.00,29.7,28.0,00.0,38.0,31.4,16.3,-002.4,0004.93,0010.78,0004.05
2023-05-08 18:39:00,,0829.7,5.00,0.00,29.7,28.1,00.0,38.0,31.4,16.1,-002.5,0004.89,0010.56,0004.00
2023-05-08 18:40:00,,0829.7,5.00,0.00,29.7,28.2,00.0,38.0,31.4,16.0,-004.4,0004.85,0010.75,0003.98
2023-05-08 18:41:00,,0829.7,4.99,0.00,29.7,28.3,00.0,38.0,31.5,15.9,-006.6,0004.77,0011.41,0003.95
2023-05-08 18:42:00,,0829.7,4.99,0.00,29.8,28.4,00.0,38.1,31.5,15.7,-001.0,0004.78,0012.12,0003.93
2023-05-08 18:43:00,,0829.7,5.01,0.00,29.8,28.5,00.0,38.1,31.5,15.7,-000.3,0004.83,0012.84,0003.97
2023-05-08 18:44:00,,0829.7,5.00,0.00,29.8,28.5,00.0,38.1,31.6,16.0,0000.4,0004.92,0013.00,0004.03
2023-05-08 18:45:00,,0829.7,4.99,0.00,29.8,28.6,00.0,38.1,31.6,15.5,0001.2,0005.03,0014.24,0004.10
2023-05-08 18:46:00,,0829.7,5.01,0.00,29.9,28.6,00.0,38.1,31.6,15.3,0001.2,0005.09,0014.54,0004.13
2023-05-08 18:47:00,,0829.7,5.01,0.00,29.9,28.7,00.0,38.2,31.7,15.5,0001.4,0005.14,0014.53,0004.13
2023-05-08 18:48:00,,0829.7,5.00,0.00,29.9,28.7,00.0,38.2,31.7,15.7,0001.2,0005.13,0014.51,0004.09
2023-05-08 18:49:00,,0829.6,4.98,0.00,30.0,28.2,00.0,38.2,31.6,15.7,0001.9,0005.14,0014.49,0004.06
2023-05-08 18:50:00,,0829.6,5.01,0.00,29.9,26.2,00.0,38.1,31.3,15.8,0002.4,0005.15,0015.11,0004.03
2023-05-08 18:51:00,,0829.6,5.00,0.00,29.8,25.3,00.0,38.0,31.0,15.4,0002.2,0005.16,0015.13,0004.01
2023-05-08 18:52:00,,0829.6,5.01,0.00,29.7,25.4,00.0,38.0,30.9,15.3,0001.4,0005.22,0014.62,0004.01
2023-05-08 18:53:00,,0829.6,5.01,0.00,29.6,25.8,00.0,38.0,30.9,15.3,0001.4,0005.22,0013.88,0004.02
2023-05-08 18:54:00,,0829.6,4.99,0.00,29.6,26.1,00.0,38.0,31.0,15.5,0001.1,0005.20,0013.13,0004.02
2023-05-08 18:55:00,,0829.6,5.00,0.00,29.5,26.5,00.0,38.0,31.0,15.7,0000.7,0005.22,0013.78,0004.04
2023-05-08 18:56:00,,0829.6,5.00,0.00,29.5,26.9,00.0,38.0,31.1,15.6,0001.1,0005.22,0012.72,0004.06
2023-05-08 18:57:00,,0829.5,5.01,0.00,29.5,27.1,00.0,37.9,31.1,15.5,-000.3,0005.23,0012.44,0004.10
2023-05-08 18:58:00,,0829.5,5.01,0.00,29.6,27.4,00.0,37.9,31.2,15.7,-001.1,0005.22,0011.94,0004.13
2023-05-08 18:59:00,,0829.4,4.98,0.00,29.6,27.6,00.0,37.9,31.2,15.7,0000.1,0005.28,0012.12,0004.20
